User: anonymous   Login
Location: Frydek-Mistek
(49.6830°N, 18.3330°E)
Time: 13:13:27
(UTC+02:00)
Language:

ISS - Orbit

View from above orbital plane
View from above orbital plane
View from above satellite
View from above satellite

Ground track
Ground track

The orbit data is extracted from the following two-line orbital elements,

1 25544U 98067A   20152.57332332  .00016717  00000-0  10270-3 0  9094
2 25544  51.6434  70.7082 0001915   3.9610 356.1555 15.49434558 29430
Epoch (UTC): 31 May 2020 13:45:35
Eccentricity: 0.0001915
inclination: 51.6434°
perigee height: 417 km
apogee height: 419 km
right ascension of ascending node: 70.7082°
argument of perigee: 3.9610°
revolutions per day: 15.49434558
mean anomaly at epoch: 356.1555°
orbit number at epoch: 2943

The dashed part of the orbit path shows where the satellite is in the earth's shadow,  

DLR